RYR9WB LEPA-GMMX

Flight info

Callsign RYR9WB
Flight time 2h 15m
Altitude 35000
Route BAVER4T BAVER DCT GERVU DCT ALT DCT RESTU DCT DOSEK DCT AMR N860 VADAT/N0456F370 N860 GONZA DCT BERUM UG850 FES UM372 ABDOR UZ801 VALBA UG850 OBOGA OBOGA4A
Aircraft A320/M-SDE2FGHIJ1RWY/SB1

Departure

Time 2026-05-08 15:50
Airport Palma de Mallorca Airport (LEPA)

Arrival

Time 2026-05-08 18:05
Airport Marrakesh Menara Airport (GMMX)
Time Latitude Longitude Altitude Speed Heading
2026-05-08 14:54 39.55056 2.73691 30 ft 0 kts 238°
2026-05-08 15:37 39.55058 2.73695 30 ft 2 kts 238°
2026-05-08 15:37 39.55067 2.73714 48 ft 2 kts 238°
2026-05-08 15:38 39.55076 2.73733 25 ft 2 kts 238°
2026-05-08 15:38 39.55085 2.73751 30 ft 2 kts 238°
2026-05-08 15:38 39.55094 2.73770 30 ft 2 kts 238°
2026-05-08 15:38 39.55103 2.73789 30 ft 2 kts 265°
2026-05-08 15:39 39.55099 2.73809 30 ft 2 kts 337°
2026-05-08 15:39 39.55084 2.73817 30 ft 2 kts 328°
2026-05-08 15:39 39.55083 2.73817 30 ft 0 kts 328°
2026-05-08 15:41 39.55096 2.73807 30 ft 7 kts 328°
2026-05-08 15:41 39.55168 2.73769 30 ft 10 kts 32°
2026-05-08 15:41 39.55168 2.73862 30 ft 14 kts 141°
2026-05-08 15:42 39.55067 2.73939 30 ft 18 kts 148°
2026-05-08 15:42 39.54956 2.74027 30 ft 19 kts 149°
2026-05-08 15:42 39.54844 2.74114 30 ft 10 kts 149°
2026-05-08 15:42 39.54788 2.74121 30 ft 11 kts 227°
2026-05-08 15:43 39.54733 2.74006 30 ft 19 kts 239°
2026-05-08 15:43 39.54658 2.73849 30 ft 21 kts 238°
2026-05-08 15:43 39.54581 2.73683 30 ft 22 kts 239°
2026-05-08 15:43 39.54497 2.73508 30 ft 24 kts 238°
2026-05-08 15:44 39.54412 2.73328 30 ft 24 kts 238°
2026-05-08 15:44 39.54331 2.73172 30 ft 10 kts 219°
2026-05-08 15:44 39.54292 2.73202 30 ft 6 kts 114°
2026-05-08 15:44 39.54284 2.73251 30 ft 5 kts 96°
2026-05-08 15:45 39.54283 2.73263 30 ft 0 kts 96°
2026-05-08 15:48 39.54282 2.73272 30 ft 5 kts 96°
2026-05-08 15:49 39.54275 2.73371 30 ft 13 kts 95°
2026-05-08 15:49 39.54278 2.73491 30 ft 13 kts 67°
2026-05-08 15:49 39.54365 2.73673 30 ft 49 kts 58°
2026-05-08 15:49 39.54662 2.74302 30 ft 113 kts 58°
2026-05-08 15:50 39.55168 2.75379 49 ft 162 kts 60°
2026-05-08 15:50 39.55738 2.76638 649 ft 162 kts 59°
2026-05-08 15:50 39.56322 2.77890 1260 ft 169 kts 63°
2026-05-08 15:50 39.56961 2.79288 1587 ft 191 kts 63°
2026-05-08 15:51 39.57670 2.80856 1979 ft 209 kts 62°
2026-05-08 15:51 39.58417 2.82501 2711 ft 213 kts 61°
2026-05-08 15:51 39.59174 2.84156 3565 ft 214 kts 63°
2026-05-08 15:51 39.59946 2.85849 4268 ft 220 kts 61°
2026-05-08 15:52 39.60736 2.87576 4959 ft 224 kts 62°
2026-05-08 15:52 39.61558 2.89321 5622 ft 230 kts 56°
2026-05-08 15:52 39.62820 2.90624 6230 ft 240 kts 21°
2026-05-08 15:52 39.64449 2.90819 6834 ft 241 kts 344°
2026-05-08 15:53 39.65904 2.89815 7435 ft 237 kts 311°
2026-05-08 15:53 39.66734 2.88008 8128 ft 233 kts 289°
2026-05-08 15:53 39.67282 2.86045 8910 ft 230 kts 284°
2026-05-08 15:53 39.67735 2.84065 9703 ft 227 kts 281°
2026-05-08 15:54 39.68084 2.82097 10397 ft 228 kts 277°
2026-05-08 15:54 39.68343 2.80018 10956 ft 237 kts 274°
2026-05-08 15:54 39.68503 2.77813 11382 ft 253 kts 271°
2026-05-08 15:54 39.68681 2.75464 11844 ft 268 kts 277°
2026-05-08 15:55 39.69146 2.73069 12339 ft 284 kts 285°
2026-05-08 15:55 39.70771 2.68149 13338 ft 314 kts 290°
2026-05-08 15:55 39.71678 2.65468 13549 ft 333 kts 289°
2026-05-08 15:56 39.72626 2.62660 13920 ft 341 kts 289°
2026-05-08 15:56 39.73569 2.59875 13984 ft 341 kts 289°
2026-05-08 15:56 39.74524 2.57057 13989 ft 340 kts 289°
2026-05-08 15:56 39.75480 2.54232 13994 ft 340 kts 289°
2026-05-08 15:57 39.76434 2.51418 13999 ft 340 kts 289°
2026-05-08 15:57 39.77392 2.48593 13998 ft 340 kts 289°
2026-05-08 15:57 39.78346 2.45773 14000 ft 340 kts 290°
2026-05-08 15:57 39.79288 2.42974 13994 ft 341 kts 290°
2026-05-08 15:58 39.80239 2.40141 13994 ft 341 kts 290°
2026-05-08 15:58 39.81115 2.37281 13991 ft 338 kts 282°
2026-05-08 15:58 39.81475 2.34285 13992 ft 334 kts 269°
2026-05-08 15:58 39.81249 2.31297 13992 ft 332 kts 256°
2026-05-08 15:59 39.80478 2.28516 14000 ft 332 kts 243°
2026-05-08 15:59 39.79212 2.25983 13992 ft 333 kts 235°
2026-05-08 15:59 39.77840 2.23550 13982 ft 332 kts 234°
2026-05-08 15:59 39.76479 2.21136 13989 ft 330 kts 234°
2026-05-08 16:00 39.75132 2.18746 14195 ft 333 kts 234°
2026-05-08 16:00 39.73761 2.16308 14891 ft 334 kts 235°
2026-05-08 16:00 39.72376 2.13847 15573 ft 337 kts 235°
2026-05-08 16:00 39.70986 2.11377 16224 ft 340 kts 235°
2026-05-08 16:01 39.69579 2.08877 16851 ft 343 kts 236°
2026-05-08 16:01 39.68166 2.06367 17460 ft 346 kts 236°
2026-05-08 16:01 39.66753 2.03864 18059 ft 349 kts 236°
2026-05-08 16:01 39.65307 2.01306 18619 ft 352 kts 236°
2026-05-08 16:02 39.63851 1.98730 19168 ft 354 kts 236°
2026-05-08 16:02 39.62391 1.96152 19733 ft 356 kts 236°
2026-05-08 16:02 39.60912 1.93550 20302 ft 358 kts 236°
2026-05-08 16:02 39.59931 1.91823 20676 ft 359 kts 236°
2026-05-08 16:03 39.57956 1.88345 21428 ft 361 kts 236°
2026-05-08 16:03 39.56966 1.86601 21793 ft 362 kts 236°
2026-05-08 16:03 39.54965 1.83079 22463 ft 364 kts 236°
2026-05-08 16:03 39.53965 1.81321 22793 ft 366 kts 236°
2026-05-08 16:04 39.52449 1.78658 23289 ft 368 kts 236°
2026-05-08 16:04 39.50935 1.76006 23725 ft 370 kts 236°
2026-05-08 16:04 39.49401 1.73320 24112 ft 372 kts 236°
2026-05-08 16:04 39.47858 1.70623 24495 ft 374 kts 236°
2026-05-08 16:05 39.46302 1.67901 24866 ft 375 kts 236°
2026-05-08 16:05 39.44743 1.65176 25234 ft 377 kts 236°
2026-05-08 16:05 39.43179 1.62443 25601 ft 379 kts 236°
2026-05-08 16:05 39.41629 1.59736 25952 ft 380 kts 236°
2026-05-08 16:06 39.40051 1.56980 26299 ft 382 kts 236°
2026-05-08 16:06 39.38461 1.54210 26647 ft 384 kts 236°
2026-05-08 16:06 39.36860 1.51427 27011 ft 385 kts 236°
2026-05-08 16:06 39.35253 1.48639 27353 ft 386 kts 236°
2026-05-08 16:07 39.33655 1.45871 27670 ft 388 kts 236°
2026-05-08 16:07 39.32042 1.43079 28014 ft 388 kts 236°
2026-05-08 16:07 39.30427 1.40277 28328 ft 390 kts 236°
2026-05-08 16:07 39.28801 1.37455 28639 ft 391 kts 236°
2026-05-08 16:08 39.27172 1.34636 28934 ft 392 kts 236°
2026-05-08 16:08 39.25556 1.31841 29210 ft 393 kts 236°
2026-05-08 16:08 39.23918 1.29000 29473 ft 395 kts 236°
2026-05-08 16:08 39.22267 1.26140 29738 ft 396 kts 236°
2026-05-08 16:09 39.20618 1.23290 29996 ft 397 kts 236°
2026-05-08 16:09 39.18966 1.20442 30312 ft 395 kts 236°
2026-05-08 16:09 39.17320 1.17610 30643 ft 393 kts 236°
2026-05-08 16:09 39.15684 1.14799 30987 ft 390 kts 237°
2026-05-08 16:10 39.14079 1.12046 31372 ft 386 kts 237°
2026-05-08 16:10 39.12476 1.09296 31750 ft 383 kts 237°
2026-05-08 16:10 39.10886 1.06570 32103 ft 379 kts 238°
2026-05-08 16:10 39.09306 1.03857 32528 ft 374 kts 238°
2026-05-08 16:11 39.07764 1.01211 32927 ft 370 kts 238°
2026-05-08 16:11 39.06229 0.98581 33311 ft 366 kts 238°
2026-05-08 16:11 39.04693 0.95961 33697 ft 363 kts 238°
2026-05-08 16:11 39.03189 0.93398 34073 ft 359 kts 238°
2026-05-08 16:12 39.01678 0.90820 34348 ft 358 kts 238°
2026-05-08 16:12 39.00185 0.88275 34585 ft 357 kts 238°
2026-05-08 16:12 38.98698 0.85734 34801 ft 357 kts 238°
2026-05-08 16:12 38.97213 0.83193 34940 ft 358 kts 238°
2026-05-08 16:13 38.94210 0.78069 34975 ft 359 kts 238°
2026-05-08 16:13 38.91198 0.72960 34975 ft 358 kts 238°
2026-05-08 16:14 38.88262 0.67843 34949 ft 353 kts 243°
2026-05-08 16:14 38.86291 0.62085 34975 ft 350 kts 250°
2026-05-08 16:15 38.84487 0.56300 34975 ft 350 kts 250°
2026-05-08 16:15 38.82676 0.50530 34974 ft 350 kts 250°
2026-05-08 16:16 38.80299 0.45048 34970 ft 353 kts 240°
2026-05-08 16:16 38.77597 0.39830 34968 ft 353 kts 240°
2026-05-08 16:17 38.74874 0.34566 34968 ft 353 kts 240°
2026-05-08 16:17 38.72157 0.29313 34967 ft 354 kts 240°
2026-05-08 16:18 38.69453 0.24096 34967 ft 354 kts 240°
2026-05-08 16:18 38.66730 0.18849 34968 ft 354 kts 240°
2026-05-08 16:19 38.63995 0.13595 34945 ft 354 kts 240°
2026-05-08 16:19 38.61262 0.08353 34954 ft 354 kts 240°
2026-05-08 16:20 38.58529 0.03118 34960 ft 354 kts 240°
2026-05-08 16:20 38.55787 -0.02124 34987 ft 354 kts 240°
2026-05-08 16:21 38.53061 -0.07331 34982 ft 354 kts 240°
2026-05-08 16:21 38.50324 -0.12554 34980 ft 353 kts 240°
2026-05-08 16:22 38.47602 -0.17743 34980 ft 353 kts 240°
2026-05-08 16:22 38.44865 -0.22947 34978 ft 352 kts 240°
2026-05-08 16:23 38.42133 -0.28123 34977 ft 352 kts 240°
2026-05-08 16:23 38.39387 -0.33311 34974 ft 352 kts 240°
2026-05-08 16:24 38.36664 -0.38468 34974 ft 352 kts 240°
2026-05-08 16:24 38.33920 -0.43656 34973 ft 352 kts 240°
2026-05-08 16:25 38.31184 -0.48803 34972 ft 352 kts 240°
2026-05-08 16:25 38.28438 -0.53974 34969 ft 352 kts 240°
2026-05-08 16:26 38.26001 -0.59287 34967 ft 348 kts 247°
2026-05-08 16:26 38.23986 -0.64902 34965 ft 348 kts 247°
2026-05-08 16:27 38.21971 -0.70492 34962 ft 348 kts 247°
2026-05-08 16:27 38.19944 -0.76101 34961 ft 349 kts 247°
2026-05-08 16:28 38.17907 -0.81712 34957 ft 348 kts 246°
2026-05-08 16:28 38.15891 -0.87266 34962 ft 348 kts 246°
2026-05-08 16:29 38.13863 -0.92862 34961 ft 347 kts 246°
2026-05-08 16:29 38.11849 -0.98413 34961 ft 347 kts 246°
2026-05-08 16:30 38.09818 -1.03974 34962 ft 347 kts 246°
2026-05-08 16:30 38.07787 -1.09523 34961 ft 347 kts 246°
2026-05-08 16:31 38.05755 -1.15085 34972 ft 347 kts 246°
2026-05-08 16:31 38.03722 -1.20636 34968 ft 347 kts 246°
2026-05-08 16:32 38.01687 -1.26170 34965 ft 347 kts 246°
2026-05-08 16:32 37.99657 -1.31698 34965 ft 347 kts 246°
2026-05-08 16:33 37.97614 -1.37243 34960 ft 347 kts 246°
2026-05-08 16:33 37.95576 -1.42764 34952 ft 347 kts 246°
2026-05-08 16:34 37.93523 -1.48302 34932 ft 347 kts 246°
2026-05-08 16:34 37.91294 -1.53725 34961 ft 349 kts 237°
2026-05-08 16:35 37.89659 -1.56006 34959 ft 355 kts 226°
2026-05-08 16:35 37.87600 -1.57825 34952 ft 364 kts 216°
2026-05-08 16:35 37.83084 -1.60745 34949 ft 366 kts 216°
2026-05-08 16:36 37.78554 -1.63688 34953 ft 366 kts 216°
2026-05-08 16:36 37.74026 -1.66638 34955 ft 366 kts 216°
2026-05-08 16:37 37.69519 -1.69562 34915 ft 366 kts 216°
2026-05-08 16:37 37.64973 -1.72494 34934 ft 367 kts 216°
2026-05-08 16:38 37.60438 -1.75425 34948 ft 367 kts 216°
2026-05-08 16:38 37.55868 -1.78377 34954 ft 367 kts 216°
2026-05-08 16:39 37.51348 -1.81290 34956 ft 367 kts 216°
2026-05-08 16:39 37.46781 -1.84230 34967 ft 368 kts 216°
2026-05-08 16:40 37.42238 -1.87150 34946 ft 368 kts 215°
2026-05-08 16:40 37.37668 -1.90088 34950 ft 368 kts 215°
2026-05-08 16:41 37.33130 -1.92999 34970 ft 367 kts 215°
2026-05-08 16:42 37.26305 -1.97368 34969 ft 367 kts 215°
2026-05-08 16:42 37.21758 -2.00307 34927 ft 366 kts 216°
2026-05-08 16:43 37.17281 -2.03315 34938 ft 367 kts 216°
2026-05-08 16:43 37.12806 -2.06357 34944 ft 367 kts 216°
2026-05-08 16:44 37.08295 -2.09380 34951 ft 368 kts 215°
2026-05-08 16:44 37.03763 -2.12393 34947 ft 368 kts 216°
2026-05-08 16:45 36.99250 -2.15395 34948 ft 368 kts 216°
2026-05-08 16:45 36.94722 -2.18396 34925 ft 368 kts 215°
2026-05-08 16:46 36.90205 -2.21391 34931 ft 368 kts 215°
2026-05-08 16:46 36.85665 -2.24381 34935 ft 368 kts 215°
2026-05-08 16:47 36.81423 -2.27833 34936 ft 360 kts 224°
2026-05-08 16:47 36.77540 -2.31765 34962 ft 360 kts 224°
2026-05-08 16:48 36.73655 -2.35652 34962 ft 360 kts 224°
2026-05-08 16:48 36.69736 -2.39580 34923 ft 360 kts 224°
2026-05-08 16:49 36.65820 -2.43504 34930 ft 361 kts 224°
2026-05-08 16:49 36.61918 -2.47409 34934 ft 361 kts 224°
2026-05-08 16:50 36.58009 -2.51320 34940 ft 362 kts 224°
2026-05-08 16:50 36.54075 -2.55250 34944 ft 362 kts 223°
2026-05-08 16:51 36.50135 -2.59175 34948 ft 362 kts 223°
2026-05-08 16:51 36.46218 -2.63066 34930 ft 362 kts 223°
2026-05-08 16:52 36.42222 -2.66929 34929 ft 363 kts 222°
2026-05-08 16:52 36.38228 -2.70735 34964 ft 363 kts 222°
2026-05-08 16:53 36.32224 -2.76456 34966 ft 362 kts 222°
2026-05-08 16:53 36.28227 -2.80280 34959 ft 362 kts 223°
2026-05-08 16:54 36.24253 -2.84075 34960 ft 362 kts 222°
2026-05-08 16:54 36.20931 -2.87243 34904 ft 362 kts 222°
2026-05-08 16:55 36.16956 -2.91071 34909 ft 363 kts 223°
2026-05-08 16:55 36.12983 -2.94944 34916 ft 364 kts 223°
2026-05-08 16:56 36.09008 -2.98815 34917 ft 365 kts 223°
2026-05-08 16:56 36.05008 -3.02684 34919 ft 365 kts 222°
2026-05-08 16:57 36.01002 -3.06550 34935 ft 365 kts 221°
2026-05-08 16:57 35.96988 -3.10427 34939 ft 365 kts 222°
2026-05-08 16:58 35.92992 -3.14291 34932 ft 365 kts 222°
2026-05-08 16:58 35.88982 -3.18155 34933 ft 365 kts 221°
2026-05-08 16:59 35.84976 -3.22003 34930 ft 365 kts 221°
2026-05-08 16:59 35.80968 -3.25834 34926 ft 365 kts 221°
2026-05-08 17:00 35.76956 -3.29617 34934 ft 365 kts 221°
2026-05-08 17:00 35.72901 -3.33421 34929 ft 365 kts 221°
2026-05-08 17:01 35.68879 -3.37190 34895 ft 365 kts 221°
2026-05-08 17:01 35.64817 -3.40992 34904 ft 366 kts 221°
2026-05-08 17:02 35.60745 -3.44800 34911 ft 367 kts 220°
2026-05-08 17:02 35.56693 -3.48589 34911 ft 368 kts 220°
2026-05-08 17:03 35.52606 -3.52399 34910 ft 368 kts 220°
2026-05-08 17:03 35.48544 -3.56188 34914 ft 368 kts 220°
2026-05-08 17:04 35.44469 -3.59982 34886 ft 369 kts 220°
2026-05-08 17:04 35.40382 -3.63794 34890 ft 369 kts 220°
2026-05-08 17:05 35.36271 -3.67616 34889 ft 370 kts 220°
2026-05-08 17:05 35.32189 -3.71407 34896 ft 370 kts 220°
2026-05-08 17:06 35.28069 -3.75228 34881 ft 370 kts 220°
2026-05-08 17:06 35.23978 -3.79016 34881 ft 370 kts 220°
2026-05-08 17:07 35.19867 -3.82809 34906 ft 370 kts 220°
2026-05-08 17:07 35.15771 -3.86639 34862 ft 370 kts 221°
2026-05-08 17:08 35.11717 -3.90527 34881 ft 370 kts 221°
2026-05-08 17:08 35.07676 -3.94399 34882 ft 371 kts 221°
2026-05-08 17:09 35.03620 -3.98258 34877 ft 371 kts 221°
2026-05-08 17:09 34.99518 -4.02142 34879 ft 371 kts 221°
2026-05-08 17:10 34.95454 -4.05989 34887 ft 372 kts 221°
2026-05-08 17:10 34.91378 -4.09855 34871 ft 373 kts 221°
2026-05-08 17:11 34.87292 -4.13717 34875 ft 372 kts 221°
2026-05-08 17:11 34.83170 -4.17600 35148 ft 373 kts 221°
2026-05-08 17:12 34.81136 -4.19516 35377 ft 373 kts 221°
2026-05-08 17:12 34.79085 -4.21451 35624 ft 372 kts 221°
2026-05-08 17:12 34.77044 -4.23380 35799 ft 370 kts 221°
2026-05-08 17:12 34.75006 -4.25301 35998 ft 369 kts 220°
2026-05-08 17:13 34.72973 -4.27214 36208 ft 369 kts 220°
2026-05-08 17:13 34.70940 -4.29124 36443 ft 368 kts 221°
2026-05-08 17:13 34.68934 -4.31004 36653 ft 366 kts 221°
2026-05-08 17:13 34.66916 -4.32895 36828 ft 367 kts 220°
2026-05-08 17:14 34.62878 -4.36683 36867 ft 366 kts 220°
2026-05-08 17:14 34.58847 -4.40453 36863 ft 365 kts 220°
2026-05-08 17:15 34.54853 -4.44188 36842 ft 365 kts 220°
2026-05-08 17:15 34.50835 -4.47947 36853 ft 364 kts 220°
2026-05-08 17:16 34.46810 -4.51707 36852 ft 365 kts 220°
2026-05-08 17:16 34.42800 -4.55449 36842 ft 365 kts 220°
2026-05-08 17:17 34.38754 -4.59216 36827 ft 366 kts 220°
2026-05-08 17:17 34.34729 -4.62947 36836 ft 366 kts 220°
2026-05-08 17:18 34.30667 -4.66690 36846 ft 367 kts 220°
2026-05-08 17:18 34.26589 -4.70438 36849 ft 367 kts 220°
2026-05-08 17:19 34.22535 -4.74153 36856 ft 367 kts 220°
2026-05-08 17:19 34.18474 -4.77877 36867 ft 367 kts 220°
2026-05-08 17:20 34.14393 -4.81609 36877 ft 367 kts 220°
2026-05-08 17:20 34.10334 -4.85315 36869 ft 368 kts 220°
2026-05-08 17:21 34.06245 -4.89048 36875 ft 368 kts 220°
2026-05-08 17:21 34.02157 -4.92776 36883 ft 368 kts 220°
2026-05-08 17:22 33.98074 -4.96495 36898 ft 369 kts 220°
2026-05-08 17:22 33.93986 -5.00219 36896 ft 369 kts 220°
2026-05-08 17:23 33.89872 -5.03911 36898 ft 370 kts 219°
2026-05-08 17:23 33.85676 -5.07534 36894 ft 370 kts 219°
2026-05-08 17:24 33.81507 -5.11105 36870 ft 370 kts 219°
2026-05-08 17:24 33.77303 -5.14727 36883 ft 371 kts 219°
2026-05-08 17:25 33.73119 -5.18355 36900 ft 371 kts 219°
2026-05-08 17:25 33.68939 -5.21971 36910 ft 371 kts 219°
2026-05-08 17:26 33.64748 -5.25590 36921 ft 371 kts 219°
2026-05-08 17:26 33.60561 -5.29194 36928 ft 371 kts 219°
2026-05-08 17:27 33.56343 -5.32821 36902 ft 371 kts 219°
2026-05-08 17:27 33.52157 -5.36418 36931 ft 372 kts 219°
2026-05-08 17:28 33.47962 -5.40020 36931 ft 371 kts 219°
2026-05-08 17:28 33.43759 -5.43624 36932 ft 371 kts 219°
2026-05-08 17:29 33.39563 -5.47210 36934 ft 371 kts 219°
2026-05-08 17:29 33.35355 -5.50798 36923 ft 371 kts 219°
2026-05-08 17:30 33.31153 -5.54387 36922 ft 371 kts 219°
2026-05-08 17:30 33.26968 -5.57953 36922 ft 371 kts 219°
2026-05-08 17:31 33.22778 -5.61518 36921 ft 371 kts 219°
2026-05-08 17:31 33.18563 -5.65105 36903 ft 371 kts 219°
2026-05-08 17:32 33.14386 -5.68655 36904 ft 371 kts 219°
2026-05-08 17:32 33.10182 -5.72224 36926 ft 369 kts 219°
2026-05-08 17:33 33.06028 -5.75741 36915 ft 367 kts 219°
2026-05-08 17:33 33.01852 -5.79270 36848 ft 367 kts 219°
2026-05-08 17:34 32.97685 -5.82789 36856 ft 368 kts 219°
2026-05-08 17:34 32.93488 -5.86335 36862 ft 369 kts 219°
2026-05-08 17:35 32.89309 -5.89859 36872 ft 370 kts 219°
2026-05-08 17:35 32.85116 -5.93385 36875 ft 370 kts 219°
2026-05-08 17:36 32.80899 -5.96927 36867 ft 371 kts 219°
2026-05-08 17:36 32.76701 -6.00455 36882 ft 371 kts 219°
2026-05-08 17:37 32.72467 -6.04008 36855 ft 371 kts 219°
2026-05-08 17:37 32.68268 -6.07541 36879 ft 372 kts 219°
2026-05-08 17:38 32.64033 -6.11103 36891 ft 372 kts 219°
2026-05-08 17:38 32.59820 -6.14637 36894 ft 372 kts 219°
2026-05-08 17:39 32.55585 -6.18184 36902 ft 372 kts 219°
2026-05-08 17:39 32.51340 -6.21734 36903 ft 373 kts 219°
2026-05-08 17:40 32.47111 -6.25266 36904 ft 373 kts 219°
2026-05-08 17:40 32.42958 -6.28913 36863 ft 370 kts 226°
2026-05-08 17:41 32.39948 -6.33780 36871 ft 368 kts 242°
2026-05-08 17:41 32.37604 -6.39179 36877 ft 368 kts 242°
2026-05-08 17:42 32.36431 -6.41875 36521 ft 370 kts 242°
2026-05-08 17:42 32.35248 -6.44587 35398 ft 379 kts 242°
2026-05-08 17:42 32.34018 -6.47403 34335 ft 386 kts 242°
2026-05-08 17:42 32.32794 -6.50208 33241 ft 391 kts 242°
2026-05-08 17:43 32.31539 -6.53081 32084 ft 395 kts 242°
2026-05-08 17:43 32.30270 -6.55987 30910 ft 399 kts 242°
2026-05-08 17:43 32.28993 -6.58910 29895 ft 400 kts 241°
2026-05-08 17:43 32.27722 -6.61822 29063 ft 395 kts 241°
2026-05-08 17:44 32.26475 -6.64674 28505 ft 385 kts 241°
2026-05-08 17:44 32.25254 -6.67455 27933 ft 377 kts 241°
2026-05-08 17:44 32.24050 -6.70194 27373 ft 370 kts 241°
2026-05-08 17:44 32.22887 -6.72839 26843 ft 364 kts 241°
2026-05-08 17:45 32.21727 -6.75478 26316 ft 359 kts 241°
2026-05-08 17:45 32.20581 -6.78077 25794 ft 354 kts 241°
2026-05-08 17:45 32.19446 -6.80649 25235 ft 350 kts 241°
2026-05-08 17:45 32.18334 -6.83167 24649 ft 348 kts 241°
2026-05-08 17:46 32.17216 -6.85701 24081 ft 346 kts 241°
2026-05-08 17:46 32.16102 -6.88229 23502 ft 346 kts 241°
2026-05-08 17:46 32.15004 -6.90719 22898 ft 343 kts 241°
2026-05-08 17:46 32.13905 -6.93209 22376 ft 339 kts 241°
2026-05-08 17:47 32.12814 -6.95677 21896 ft 335 kts 240°
2026-05-08 17:47 32.11749 -6.98082 21421 ft 332 kts 240°
2026-05-08 17:47 32.10677 -7.00502 20963 ft 329 kts 240°
2026-05-08 17:47 32.09978 -7.02080 20665 ft 327 kts 241°
2026-05-08 17:48 32.08929 -7.04446 20225 ft 325 kts 240°
2026-05-08 17:48 32.07540 -7.07572 19626 ft 324 kts 240°
2026-05-08 17:48 32.06494 -7.09926 19169 ft 323 kts 240°
2026-05-08 17:48 32.05803 -7.11480 18868 ft 323 kts 240°
2026-05-08 17:49 32.04760 -7.13830 18404 ft 324 kts 240°
2026-05-08 17:49 32.03721 -7.16194 17889 ft 324 kts 243°
2026-05-08 17:49 32.02968 -7.18710 17390 ft 327 kts 254°
2026-05-08 17:49 32.02683 -7.21381 16901 ft 330 kts 265°
2026-05-08 17:50 32.02889 -7.24093 16406 ft 335 kts 277°
2026-05-08 17:50 32.03419 -7.26745 15886 ft 337 kts 279°
2026-05-08 17:50 32.03965 -7.29432 15377 ft 337 kts 279°
2026-05-08 17:50 32.04507 -7.32126 14859 ft 338 kts 279°
2026-05-08 17:51 32.05049 -7.34834 14335 ft 339 kts 279°
2026-05-08 17:51 32.05589 -7.37546 13807 ft 340 kts 279°
2026-05-08 17:51 32.06130 -7.40268 13233 ft 341 kts 279°
2026-05-08 17:51 32.06665 -7.42956 12697 ft 339 kts 279°
2026-05-08 17:52 32.07136 -7.45673 12155 ft 336 kts 272°
2026-05-08 17:52 32.07097 -7.48397 11617 ft 329 kts 258°
2026-05-08 17:52 32.05416 -7.53285 10598 ft 320 kts 232°
2026-05-08 17:53 32.03988 -7.55201 10389 ft 308 kts 226°
2026-05-08 17:53 32.02572 -7.57022 10267 ft 295 kts 226°
2026-05-08 17:53 32.01224 -7.58777 10144 ft 283 kts 227°
2026-05-08 17:53 31.99924 -7.60480 9931 ft 276 kts 226°
2026-05-08 17:54 31.98653 -7.62146 9770 ft 272 kts 226°
2026-05-08 17:54 31.97386 -7.63801 9634 ft 271 kts 226°
2026-05-08 17:54 31.96130 -7.65430 9298 ft 270 kts 225°
2026-05-08 17:54 31.94867 -7.67065 8902 ft 269 kts 226°
2026-05-08 17:55 31.93602 -7.68703 8503 ft 269 kts 226°
2026-05-08 17:55 31.92345 -7.70330 8090 ft 268 kts 226°
2026-05-08 17:55 31.91086 -7.71957 7701 ft 267 kts 227°
2026-05-08 17:55 31.89849 -7.73552 7387 ft 267 kts 226°
2026-05-08 17:56 31.88594 -7.75170 7143 ft 266 kts 227°
2026-05-08 17:56 31.87351 -7.76776 6897 ft 264 kts 227°
2026-05-08 17:56 31.86117 -7.78375 6656 ft 262 kts 226°
2026-05-08 17:56 31.84837 -7.79899 6417 ft 261 kts 218°
2026-05-08 17:57 31.83247 -7.80911 6178 ft 261 kts 199°
2026-05-08 17:57 31.81419 -7.81241 5916 ft 271 kts 180°
2026-05-08 17:57 31.79549 -7.81110 5667 ft 272 kts 177°
2026-05-08 17:57 31.77650 -7.80968 5517 ft 274 kts 178°
2026-05-08 17:58 31.75741 -7.80829 5512 ft 274 kts 178°
2026-05-08 17:58 31.73890 -7.80692 5508 ft 261 kts 178°
2026-05-08 17:58 31.72138 -7.80560 5521 ft 244 kts 177°
2026-05-08 17:58 31.70502 -7.80436 5523 ft 227 kts 178°
2026-05-08 17:59 31.68974 -7.80319 5522 ft 212 kts 180°
2026-05-08 17:59 31.67528 -7.80212 5523 ft 206 kts 180°
2026-05-08 17:59 31.66105 -7.80282 5443 ft 204 kts 190°
2026-05-08 17:59 31.64695 -7.80461 5216 ft 203 kts 190°
2026-05-08 18:00 31.63289 -7.80629 4989 ft 203 kts 187°
2026-05-08 18:00 31.60492 -7.80977 4618 ft 203 kts 194°
2026-05-08 18:00 31.59316 -7.81757 4411 ft 194 kts 236°
2026-05-08 18:01 31.58885 -7.83189 4240 ft 189 kts 274°
2026-05-08 18:01 31.59063 -7.84716 4061 ft 189 kts 278°
2026-05-08 18:01 31.59208 -7.86236 3887 ft 185 kts 276°
2026-05-08 18:01 31.59327 -7.87704 3731 ft 177 kts 277°
2026-05-08 18:02 31.59439 -7.89099 3526 ft 164 kts 276°
2026-05-08 18:02 31.59510 -7.89963 3419 ft 159 kts 276°
2026-05-08 18:02 31.59652 -7.91641 3219 ft 151 kts 277°
2026-05-08 18:02 31.59757 -7.92860 3051 ft 151 kts 277°
2026-05-08 18:03 31.59862 -7.94057 2859 ft 149 kts 277°
2026-05-08 18:03 31.59969 -7.95277 2635 ft 148 kts 277°
2026-05-08 18:03 31.60067 -7.96467 2452 ft 150 kts 277°
2026-05-08 18:03 31.60170 -7.97686 2289 ft 151 kts 276°
2026-05-08 18:04 31.60280 -7.98917 2100 ft 150 kts 277°
2026-05-08 18:04 31.60388 -8.00131 1913 ft 148 kts 278°
2026-05-08 18:04 31.60485 -8.01320 1712 ft 145 kts 276°
2026-05-08 18:04 31.60588 -8.02497 1558 ft 139 kts 277°
2026-05-08 18:05 31.60674 -8.03465 1537 ft 96 kts 276°
2026-05-08 18:05 31.60728 -8.04067 1539 ft 61 kts 276°
2026-05-08 18:05 31.60754 -8.04357 1537 ft 16 kts 273°
2026-05-08 18:05 31.60708 -8.04392 1532 ft 7 kts 184°
2026-05-08 18:06 31.60682 -8.04394 1538 ft 5 kts 184°
2026-05-08 18:06 31.60611 -8.04401 1542 ft 9 kts 181°
2026-05-08 18:06 31.60576 -8.04311 1548 ft 20 kts 95°
2026-05-08 18:06 31.60562 -8.04149 1548 ft 19 kts 96°
2026-05-08 18:07 31.60549 -8.04001 1548 ft 18 kts 96°
2026-05-08 18:07 31.60537 -8.03864 1548 ft 16 kts 96°
2026-05-08 18:07 31.60525 -8.03718 1545 ft 21 kts 95°
2026-05-08 18:07 31.60508 -8.03528 1548 ft 25 kts 96°
2026-05-08 18:08 31.60490 -8.03334 1549 ft 23 kts 96°
2026-05-08 18:08 31.60475 -8.03160 1549 ft 21 kts 96°
2026-05-08 18:08 31.60461 -8.02998 1549 ft 19 kts 96°
2026-05-08 18:08 31.60448 -8.02851 1549 ft 17 kts 96°
2026-05-08 18:09 31.60436 -8.02716 1549 ft 16 kts 95°
2026-05-08 18:09 31.60427 -8.02594 1549 ft 12 kts 94°
2026-05-08 18:09 31.60403 -8.02533 1549 ft 7 kts 173°
2026-05-08 18:09 31.60356 -8.02540 1549 ft 6 kts 186°
2026-05-08 18:10 31.60316 -8.02545 1549 ft 5 kts 186°
2026-05-08 18:10 31.60302 -8.02546 1549 ft 0 kts 186°